Dewpoint
-10 -10 -9 -9 -8 -8 -7 -7 -7 -7 -7 -7 -7 -8 -10 -14 -15 -11 -7 2 -3 -6 -7 -7 -4 0 3 3 4 4 2 8 11
-9 -9 -8 -7 -7 -7 -7 -7 -6 -6 -6 -6 -6 -7 -7 -9 -11 -12 -11 0 -7 -9 -11 -10 -9 -8 -9 -9 -10 -9 -4 -0 7
-9 -7 -6 -6 -7 -7 -7 -7 -7 -7 -7 -7 -7 -7 -7 -8 -8 -8 2 -9 -9 -9 -12 -11 -10 -9 -7 -9 -9 -10 -11 -7 -2
-7 -6 -7 -7 -7 -7 -7 -7 -7 -7 -7 -7 -7 -7 -7 -8 -9 1 5 -11 -9 -13 -13 -12 -11 -11 -8 -10 -10 -10 -10 -10 -8
-6 -7 -7 -7 -6 -6 -7 -7 -7 -7 -7 -7 -7 -7 -7 -6 -4 5 5 6 -4 -9 -11 -10 4 3 -6 -5 -4 -4 -7 -9 -8
-6 -7 -7 -6 -6 -7 -7 -8 -8 -8 -8 -7 -6 -7 -6 -3 4 7 9 9 8 8 5 6 8 7 8 8 8 9 7 5 -1
-7 -7 -7 -6 -7 -8 -9 -9 -9 -8 -8 -7 -6 -6 -4 -3 5 2 7 8 8 7 8 8 8 8 7 7 6 7 9 2 2
-7 -7 -6 -6 -8 -8 -9 -9 -9 -9 -8 -6 -6 -4 -3 2 5 -1 -0 7 7 7 7 7 6 9 9 8 8 7 3 8 2
-7 -8 -6 -8 -9 -9 -9 -9 -9 -8 -7 -5 -4 -3 -1 4 6 -3 -2 4 7 7 7 7 8 7 7 6 6 5 5 1 8
-7 -8 -7 -8 -9 -9 -9 -9 -9 -8 -7 -5 -5 -4 -1 -1 3 -2 -3 -3 3 7 7 7 7 7 7 9 8 5 5 6 7
-8 -7 -8 -9 -9 -9 -9 -9 -9 -8 -6 -5 -5 -4 -5 -6 -5 -3 -4 -4 -3 -2 5 4 7 7 7 8 8 6 2 1 3
-8 -7 -8 -9 -9 -9 -9 -9 -9 -8 -7 -4 -4 -1 -3 -3 -6 -7 -7 -7 -9 -9 -7 -5 -4 5 7 7 8 7 7 7 6
-8 -8 -9 -9 -9 -9 -9 -9 -9 -8 -7 -3 -2 -2 -3 -2 -3 -6 -5 -6 -4 -5 -9 -13 -12 -9 1 7 7 7 7 8 7
-8 -8 -9 -9 -9 -9 -9 -9 -9 -8 -7 -4 -1 -1 -2 -4 -3 -3 -3 -4 -4 -4 -5 -6 -9 -11 -8 -3 4 7 7 7 6
-8 -8 -9 -9 -9 -9 -9 -9 -10 -9 -7 -5 -1 -0 1 -3 -4 -3 -4 -5 -7 -5 -6 -6 -7 -7 -8 -9 -7 -3 1 4 3
-7 -8 -8 -9 -9 -9 -10 -10 -10 -10 -8 -7 -4 -2 -1 -1 -6 -3 -4 -4 -8 -7 -7 -6 -5 -6 -6 -7 -7 -8 -9 -6 -2
-7 -8 -8 -8 -9 -9 -9 -10 -10 -10 -10 -8 -4 -0 1 -1 -5 -4 -4 -7 -9 -8 -10 -9 -6 -6 -6 -7 -7 -7 -7 -6 -4
-7 -8 -8 -8 -8 -8 -9 -9 -10 -10 -10 -11 -7 -4 -3 -5 -5 -5 -6 -9 -9 -9 -9 -9 -7 -6 -7 -7 -7 -8 -8 -9 -10
-7 -7 -8 -8 -7 -7 -8 -8 -9 -10 -10 -10 -10 -10 -10 -3 -3 -5 -7 -9 -9 -9 -9 -8 -7 -6 -5 -6 -6 -8 -8 -8 -8
-7 -7 -7 -7 -7 -7 -7 -7 -7 -8 -8 -9 -9 -9 -10 -10 -5 -4 -4 -4 -7 -6 -7 -8 -7 -6 -5 -5 -5 -6 -6 -6 -6
Wind_Speed
9 9 9 9 9 9 8 8 8 8 7 7 7 7 6 6 4 2 1 3 3 5 5 5 7 8 9 9 9 8 7 7 4
9 9 9 9 9 9 8 8 7 7 7 7 7 6 6 6 5 3 2 2 4 7 6 4 4 4 5 6 8 9 8 8 8
8 9 9 8 8 8 8 7 7 7 7 6 6 6 6 6 5 5 5 3 5 7 5 3 2 3 4 5 5 6 7 6 7
8 8 8 8 7 7 7 7 7 7 7 7 7 7 6 5 5 7 6 6 6 5 4 3 2 2 3 5 5 4 4 4 4
7 7 7 7 7 8 7 7 7 6 7 7 7 7 7 7 8 9 12 16 11 9 7 6 7 4 5 6 6 6 4 4 3
6 6 6 7 7 8 8 7 7 7 8 8 8 8 8 8 9 8 16 12 14 13 12 11 9 9 9 8 6 7 5 5 4
5 5 6 6 7 8 8 8 8 8 8 8 9 9 8 8 9 9 13 8 8 7 8 7 9 15 12 12 12 7 8 7 5
4 4 5 6 7 7 8 8 8 7 7 8 8 9 8 8 9 8 7 12 11 9 8 8 9 10 10 9 11 11 8 7 6
4 4 4 5 5 7 8 8 7 7 8 8 8 9 9 8 8 6 6 9 11 7 8 8 10 7 7 6 9 9 10 6 7
4 3 4 4 5 7 7 7 7 7 7 8 8 9 9 9 8 7 7 6 8 9 7 9 9 10 12 13 9 13 8 8 7
4 3 3 4 5 6 7 7 7 6 7 7 7 8 8 9 8 8 8 7 6 6 5 8 10 10 9 13 11 13 9 8 8
4 3 3 4 5 6 6 7 7 6 6 6 7 7 7 8 8 8 7 7 7 7 6 6 6 9 7 9 13 11 12 12 12
5 4 3 4 5 5 6 7 7 6 5 6 6 6 7 8 8 9 9 9 9 9 8 7 5 4 7 5 6 8 9 8 6
6 5 4 4 5 5 5 6 6 6 5 5 5 5 6 6 7 7 8 9 9 9 10 8 7 5 4 2 2 2 3 3 5
7 6 5 4 5 4 5 5 6 6 5 4 4 3 3 4 4 4 6 8 10 8 9 9 7 6 5 4 3 4 5 7 10
8 7 6 5 5 4 4 5 6 6 5 4 2 1 1 2 3 2 4 5 8 7 7 8 7 7 6 6 6 5 5 6 8
10 8 7 6 5 4 4 4 5 5 5 4 4 2 1 3 1 2 3 5 7 7 8 7 6 6 6 7 7 7 7 7 9
12 10 9 7 6 5 4 4 4 4 5 5 4 1 1 1 1 2 3 8 6 7 7 7 5 5 6 6 6 6 7 9 11
13 12 10 8 7 5 4 3 3 3 3 3 3 3 1 1 1 2 3 8 6 7 6 5 5 6 6 7 7 8 10 13 15
15 13 11 9 8 6 4 3 2 2 2 2 2 2 2 2 1 1 3 5 6 9 6 5 6 7 7 9 10 12 15 18 20
Wind_Direction
91 86 81 75 70 64 60 58 55 51 47 43 42 43 48 57 62 73 85 64 303 294 295 282 272 267 269 273 272 271 278 284 294
94 85 78 73 67 61 56 54 51 50 47 43 43 45 49 60 64 70 78 1 315 311 313 299 288 284 278 276 281 283 274 266 268
89 81 78 73 65 57 49 44 40 40 41 37 37 40 43 58 66 66 47 351 324 316 324 306 291 296 303 296 301 301 289 279 262
89 85 77 69 61 54 48 43 42 41 43 40 39 42 47 57 63 57 39 13 13 11 18 12 351 342 323 328 327 330 312 292 281
95 85 75 65 58 55 50 45 43 41 43 42 42 44 51 59 60 53 59 43 43 43 45 49 51 39 24 22 11 351 342 309 293
96 80 67 58 55 55 51 45 45 45 47 46 48 51 58 63 65 61 70 53 45 49 57 54 54 46 37 36 24 3 359 358 329
102 81 62 56 55 53 50 47 49 52 56 54 57 63 67 70 68 85 101 95 64 59 64 54 50 50 39 25 13 22 360 338 336
100 78 62 52 54 53 52 50 55 60 67 67 67 71 73 72 68 93 77 70 59 52 54 48 71 68 52 31 20 20 6 12 1
118 92 79 61 59 61 59 60 62 68 73 76 76 76 76 75 76 70 81 94 74 73 72 65 55 61 40 351 356 346 354 24 42
132 107 85 67 63 66 67 69 69 72 78 79 81 81 76 74 77 64 70 73 86 77 61 66 70 61 56 21 22 13 35 43 41
145 121 95 80 75 76 77 76 73 74 88 86 85 80 76 74 73 70 54 52 45 40 68 57 56 57 67 39 34 33 40 41 42
153 136 112 104 94 89 86 80 74 78 94 95 94 91 82 73 68 66 63 49 42 33 28 22 31 60 80 70 44 41 48 48 52
162 148 137 124 106 93 89 85 77 85 99 101 100 97 88 78 69 64 60 56 47 38 32 29 26 27 57 107 81 69 70 74 69
169 162 150 134 114 103 96 88 83 89 100 109 109 110 93 73 67 62 51 41 33 28 23 23 24 25 38 88 120 90 61 36 344
178 172 161 148 127 116 106 97 88 95 101 113 117 112 91 63 50 60 45 36 22 21 23 22 21 23 24 18 338 300 298 309 307
184 181 170 159 146 133 119 108 96 99 103 103 108 92 45 19 6 49 30 10 9 15 16 17 17 13 18 17 12 5 345 339 344
190 187 178 169 159 147 130 119 109 104 98 128 146 160 326 316 353 7 13 18 16 20 358 0 12 14 8 9 11 9 4 354 351
192 189 185 178 170 161 144 132 123 116 105 99 139 110 141 351 323 331 355 6 9 4 13 2 6 6 356 356 354 355 354 349 342
194 191 189 183 178 171 160 143 128 112 103 91 90 105 113 102 177 327 317 347 352 352 348 357 343 336 332 332 332 334 338 340 339
194 194 191 188 185 183 180 164 139 111 87 83 78 66 64 72 86 290 316 351 327 343 349 341 334 322 316 310 310 314 320 324 325
Height
1546 1546 1545 1544 1544 1543 1543 1542 1542 1541 1540 1539 1539 1538 1537 1537 1537 1537 1538 1538 1537 1536 1537 1537 1537 1537 1537 1536 1536 1535 1536 1537 1537
1547 1546 1546 1545 1545 1544 1544 1543 1543 1542 1541 1540 1540 1539 1539 1538 1538 1538 1539 1538 1537 1536 1536 1536 1536 1536 1536 1535 1535 1535 1535 1536 1537
1548 1547 1547 1546 1545 1545 1544 1544 1543 1542 1542 1541 1541 1540 1539 1539 1539 1539 1539 1538 1537 1536 1535 1535 1535 1535 1535 1535 1534 1534 1534 1534 1535
1549 1548 1548 1547 1547 1546 1545 1545 1544 1543 1542 1542 1541 1540 1540 1540 1539 1540 1540 1538 1537 1536 1535 1535 1535 1535 1534 1534 1534 1533 1533 1533 1533
1549 1549 1548 1548 1547 1546 1546 1545 1544 1544 1543 1542 1541 1541 1540 1540 1540 1541 1540 1539 1538 1537 1536 1536 1536 1535 1535 1534 1534 1533 1533 1532 1532
1550 1549 1549 1548 1547 1546 1546 1545 1545 1544 1543 1542 1542 1541 1541 1541 1541 1542 1541 1541 1540 1539 1539 1538 1538 1537 1536 1536 1535 1534 1532 1532 1532
1550 1549 1549 1548 1547 1547 1546 1545 1545 1545 1544 1543 1543 1542 1542 1542 1542 1541 1541 1542 1541 1541 1540 1540 1539 1538 1538 1537 1535 1534 1533 1532 1531
1549 1549 1549 1548 1547 1546 1546 1546 1545 1545 1545 1545 1544 1544 1543 1544 1544 1542 1542 1542 1542 1541 1541 1541 1540 1539 1539 1538 1536 1535 1534 1533 1532
1549 1549 1549 1549 1548 1547 1546 1546 1546 1546 1546 1545 1545 1545 1545 1545 1546 1543 1543 1542 1543 1542 1542 1541 1541 1540 1540 1539 1538 1536 1534 1533 1533
1549 1549 1549 1549 1548 1547 1547 1546 1546 1546 1547 1546 1546 1546 1546 1545 1546 1544 1544 1543 1542 1543 1542 1541 1541 1541 1541 1539 1537 1536 1535 1534 1533
1548 1548 1549 1549 1548 1547 1547 1547 1547 1547 1547 1547 1546 1546 1546 1546 1546 1546 1545 1544 1543 1543 1542 1541 1541 1541 1542 1540 1538 1536 1535 1534 1534
1547 1548 1548 1549 1548 1548 1547 1547 1547 1547 1548 1548 1547 1547 1547 1547 1547 1546 1546 1545 1544 1543 1542 1541 1540 1540 1541 1541 1539 1538 1536 1535 1534
1547 1548 1548 1549 1548 1548 1548 1547 1547 1547 1548 1548 1549 1549 1549 1548 1548 1547 1547 1547 1546 1544 1543 1542 1540 1540 1539 1540 1540 1539 1538 1536 1535
1546 1547 1547 1548 1548 1548 1548 1548 1547 1547 1549 1549 1549 1550 1549 1549 1549 1548 1548 1547 1546 1545 1544 1543 1541 1540 1540 1539 1539 1539 1538 1537 1535
1545 1545 1546 1547 1547 1548 1548 1548 1548 1547 1548 1549 1550 1550 1550 1550 1550 1549 1548 1547 1546 1546 1545 1544 1543 1542 1540 1540 1539 1538 1537 1536 1535
1543 1544 1545 1546 1547 1548 1548 1548 1548 1547 1548 1549 1550 1550 1550 1550 1550 1549 1548 1548 1546 1546 1545 1544 1544 1543 1542 1540 1539 1538 1537 1536 1534
1542 1543 1544 1545 1547 1547 1548 1548 1548 1547 1548 1549 1550 1552 1552 1551 1550 1549 1549 1548 1547 1546 1545 1545 1544 1543 1542 1541 1540 1538 1537 1536 1534
1540 1541 1543 1544 1546 1547 1547 1547 1547 1547 1548 1548 1549 1550 1551 1550 1550 1549 1549 1549 1548 1547 1546 1545 1544 1543 1543 1541 1540 1539 1537 1536 1534
1537 1539 1541 1542 1544 1546 1547 1547 1547 1547 1547 1547 1548 1548 1549 1550 1552 1550 1549 1549 1548 1547 1545 1545 1544 1543 1542 1541 1540 1538 1537 1535 1533
1535 1537 1539 1541 1543 1544 1545 1545 1546 1546 1546 1547 1547 1548 1548 1549 1550 1551 1550 1549 1547 1546 1545 1544 1543 1543 1542 1540 1539 1537 1536 1534 1532